This demonstration page uses our WeatherBlox Daily Observations layout. Learn more.

Left ArrowRight Arrow

Hourly Observations for April 4, 2023

Temp ( °F °C ) Dew Point ( °F °C ) Humidity (%) Winds ( mph kmh ) Pressure ( in mb ) Visibility ( mi km ) Precip ( " mm )
12:55 am 00:55 Cloudy 45 7.3 33 0.3 61 61 NE 14 22 29.72 1007 10 16 0.00 0.00
1:55 am 01:55 Cloudy 44 6.9 32 0.1 62 62 NE 10 17 29.69 1006 10 16 0.00 0.00
2:55 am 02:55 Cloudy 45 7 33 0.4 63 63 NE 16 26 29.63 1004 10 16 0.00 0.00
3:55 am 03:55 Cloudy 45 7 32 -0.2 60 60 ENE 14 22 29.57 1002 10 16 0.00 0.00
4:55 am 04:55 Cloudy 45 7.3 31 -0.4 58 58 ENE 18 30 29.54 1001 10 16 0.00 0.00
5:55 am 05:55 Cloudy 45 7 32 -0.2 60 60 ENE 13 20 29.53 1000 10 16 0.00 0.00
6:55 am 06:55 Mostly Clear 44 6.7 32 -0.1 62 62 ENE 13 20 29.51 999 10 16 0.00 0.00
7:55 am 07:55 Cloudy 46 7.9 34 1.1 62 62 ENE 12 19 29.50 999 10 16 0.00 0.00
8:55 am 08:55 Cloudy 49 9.2 37 2.7 64 64 ENE 9 15 29.48 998 10 16 0.00 0.00
9:40 am 09:40 Cloudy 50 10 39 4 66 66 E 12 19 29.44 997 10 16 0.00 0.00
9:55 am 09:55 Cloudy 51 10.8 40 4.3 64 64 E 10 17 29.44 997 10 16 0.00 0.00
10:40 am 10:40 Cloudy 54 12 41 5 62 62 E 7 11 29.43 997 10 16 0.00 0.00
10:55 am 10:55 Cloudy 55 12.8 43 5.9 63 63 E 10 17 29.42 996 10 16 0.00 0.00
11:55 am 11:55 Partly Cloudy 60 15.8 46 7.8 59 59 ENE 5 7 29.41 996 10 16 0.00 0.00
12:55 pm 12:55 Sunny 67 19.5 48 8.8 50 50 Calm 29.38 995 10 16 0.00 0.00
1:55 pm 13:55 Sunny 71 21.9 47 8.4 42 42 WSW 5 7 29.35 994 10 16 0.00 0.00
2:55 pm 14:55 Sunny 75 23.9 45 7.1 34 34 WNW 7 11 29.31 993 10 16 0.00 0.00
3:55 pm 15:55 Sunny 75 24 44 6.7 33 33 W 14 22 29.30 992 10 16 0.00 0.00
4:55 pm 16:55 Sunny 74 23.4 41 4.8 30 30 WNW 20 31 29.29 992 10 16 0.00 0.00
5:55 pm 17:55 Sunny 63 17.3 39 3.9 41 41 NW 25 41 29.35 994 10 16 0.00 0.00
6:55 pm 18:55 Sunny 54 12.1 37 2.8 53 53 NW 21 33 29.42 996 10 16 0.00 0.00
7:55 pm 19:55 Clear 47 8.1 35 1.9 65 65 WNW 29 46 29.43 997 10 16 0.00 0.00
8:40 pm 20:40 Mostly Cloudy 43 6 32 0 65 65 NW 20 31 29.51 999 10 16 0.00 0.00
8:55 pm 20:55 Mostly Cloudy 43 5.9 32 0.2 67 67 NW 23 37 29.51 999 10 16 0.00 0.00
9:10 pm 21:10 Partly Cloudy 41 5 32 0 70 70 NW 15 24 29.57 1001 10 16 0.00 0.00
9:40 pm 21:40 Mostly Cloudy 41 5 32 0 70 70 NW 18 30 29.57 1001 10 16 0.00 0.00
9:55 pm 21:55 Cloudy 41 5 31 -0.4 68 68 WNW 20 31 29.59 1002 10 16 0.00 0.00
10:55 pm 22:55 Cloudy 40 4.4 30 -1 68 68 WNW 23 37 29.62 1003 10 16 0.00 0.00
11:55 pm 23:55 Cloudy 38 3.3 27 -2.7 65 65 WNW 26 43 29.63 1003 10 16 0.00 0.00

Powered by Vaisala Xweather